Temp
-15 -16 -16 -15 -15 -15 -15 -15 -15 -15 -15 -15 -15 -15 -15 -15 -15 -15 -15 -15 -15 -15 -15 -15 -16 -16 -16 -16 -16 -17 -16 -17 -17 -18 -18 -18 -18 -19 -18 -18 -18 -18 -17 -17
-16 -16 -16 -16 -16 -15 -15 -15 -15 -15 -15 -15 -15 -15 -15 -15 -15 -15 -15 -15 -15 -16 -16 -16 -16 -16 -16 -16 -17 -17 -17 -17 -18 -19 -19 -19 -19 -19 -18 -18 -18 -18 -17 -17
-16 -16 -16 -16 -16 -16 -16 -15 -16 -15 -15 -15 -15 -15 -15 -15 -15 -15 -15 -15 -16 -16 -16 -16 -16 -16 -17 -17 -17 -17 -17 -19 -20 -19 -19 -19 -19 -18 -18 -18 -18 -18 -17 -17
-16 -16 -16 -16 -16 -16 -16 -16 -16 -15 -15 -15 -15 -15 -15 -16 -16 -16 -16 -16 -16 -16 -16 -17 -17 -17 -17 -17 -17 -17 -18 -20 -20 -19 -20 -19 -19 -18 -18 -18 -18 -17 -17 -17
-17 -17 -17 -16 -16 -16 -16 -16 -16 -16 -16 -16 -16 -16 -16 -16 -16 -16 -16 -16 -16 -16 -17 -17 -17 -18 -18 -18 -18 -18 -19 -19 -19 -20 -20 -19 -19 -18 -18 -17 -17 -17 -17 -17
-17 -17 -17 -17 -17 -16 -16 -16 -16 -16 -16 -16 -16 -16 -16 -16 -16 -16 -16 -17 -17 -17 -17 -18 -18 -18 -18 -18 -18 -19 -19 -19 -20 -19 -19 -19 -18 -18 -18 -18 -18 -17 -17 -17
-17 -17 -17 -17 -17 -17 -17 -17 -17 -16 -17 -17 -17 -17 -16 -16 -16 -17 -17 -17 -17 -17 -18 -18 -18 -18 -18 -18 -19 -19 -19 -19 -19 -19 -19 -18 -18 -18 -18 -18 -18 -18 -17 -18
-17 -17 -17 -17 -17 -17 -17 -17 -17 -17 -17 -17 -17 -17 -17 -17 -17 -17 -17 -17 -18 -18 -19 -19 -19 -19 -19 -19 -19 -19 -20 -20 -20 -19 -19 -18 -18 -18 -18 -18 -18 -17 -18 -18
-18 -18 -18 -18 -18 -18 -17 -17 -17 -17 -18 -17 -17 -17 -17 -17 -17 -17 -17 -18 -18 -19 -19 -19 -19 -19 -20 -20 -20 -20 -20 -20 -19 -19 -18 -17 -18 -18 -18 -18 -18 -17 -18 -17
-18 -18 -18 -18 -18 -18 -18 -18 -18 -18 -18 -18 -17 -17 -17 -17 -17 -18 -18 -18 -19 -19 -19 -19 -19 -20 -20 -20 -20 -20 -20 -20 -19 -19 -19 -18 -18 -18 -18 -18 -18 -18 -17 -17
-18 -18 -18 -18 -18 -18 -18 -18 -18 -18 -18 -18 -18 -18 -18 -18 -18 -18 -19 -19 -19 -19 -19 -19 -19 -20 -20 -21 -21 -20 -20 -20 -19 -19 -18 -18 -18 -18 -18 -18 -18 -18 -17 -17
-19 -19 -19 -19 -18 -18 -19 -19 -19 -19 -19 -18 -18 -18 -18 -18 -19 -19 -20 -20 -20 -19 -19 -19 -20 -20 -20 -21 -21 -21 -21 -20 -19 -19 -19 -19 -18 -18 -18 -18 -18 -17 -17 -17
-19 -19 -19 -19 -19 -19 -19 -19 -19 -19 -19 -19 -19 -19 -19 -19 -19 -20 -20 -20 -20 -20 -20 -20 -20 -21 -21 -21 -21 -21 -20 -20 -19 -19 -19 -19 -18 -18 -18 -18 -17 -17 -17 -17
-20 -20 -19 -19 -19 -19 -19 -19 -19 -19 -19 -19 -19 -19 -19 -20 -20 -20 -20 -20 -20 -20 -21 -21 -21 -21 -21 -21 -20 -20 -20 -20 -19 -19 -19 -19 -18 -18 -18 -18 -17 -17 -17 -17
-20 -20 -20 -20 -20 -20 -20 -20 -20 -20 -20 -20 -20 -19 -20 -20 -21 -20 -20 -20 -21 -21 -22 -22 -22 -22 -21 -20 -20 -20 -20 -19 -19 -19 -19 -19 -18 -18 -18 -18 -17 -17 -17 -17
-20 -20 -20 -20 -20 -20 -20 -20 -20 -20 -20 -20 -20 -20 -20 -21 -21 -21 -20 -21 -21 -23 -24 -24 -23 -22 -21 -20 -21 -20 -20 -20 -19 -19 -19 -19 -19 -19 -18 -18 -17 -17 -17 -17
-21 -21 -21 -20 -20 -20 -20 -21 -21 -20 -20 -20 -21 -21 -21 -21 -21 -21 -21 -22 -23 -24 -25 -25 -25 -23 -22 -21 -21 -20 -20 -19 -19 -19 -19 -19 -19 -18 -18 -18 -17 -17 -17 -17
-21 -21 -21 -21 -21 -21 -21 -21 -21 -21 -21 -21 -21 -21 -22 -21 -21 -21 -22 -23 -24 -25 -26 -26 -25 -23 -22 -21 -21 -20 -20 -19 -19 -19 -19 -18 -19 -18 -18 -18 -17 -17 -17 -17
-21 -21 -21 -21 -21 -21 -21 -22 -22 -22 -21 -21 -22 -22 -22 -22 -22 -22 -22 -24 -24 -25 -26 -25 -24 -23 -22 -21 -20 -20 -19 -19 -19 -19 -19 -18 -19 -18 -18 -18 -18 -17 -17 -17
-22 -22 -22 -21 -22 -22 -22 -22 -22 -22 -22 -22 -22 -22 -22 -22 -22 -22 -23 -24 -25 -25 -25 -24 -22 -22 -22 -21 -20 -20 -19 -19 -19 -19 -19 -19 -19 -18 -18 -18 -18 -17 -17 -17
-22 -22 -22 -22 -22 -23 -23 -23 -22 -22 -22 -22 -23 -23 -23 -23 -22 -23 -24 -24 -25 -25 -24 -23 -22 -22 -21 -21 -20 -20 -20 -20 -19 -19 -19 -19 -18 -19 -19 -18 -18 -18 -18 -18
-23 -23 -23 -23 -23 -23 -23 -23 -23 -22 -22 -23 -23 -23 -23 -23 -23 -23 -24 -24 -24 -24 -23 -23 -22 -22 -21 -20 -20 -20 -20 -19 -19 -19 -19 -18 -18 -19 -19 -19 -18 -18 -18 -18
-24 -24 -24 -24 -24 -24 -24 -23 -23 -23 -23 -23 -23 -23 -23 -23 -23 -24 -24 -24 -24 -24 -24 -22 -22 -21 -21 -21 -20 -20 -20 -20 -19 -19 -19 -19 -19 -19 -19 -19 -19 -19 -18 -18
-25 -25 -25 -24 -24 -25 -24 -24 -24 -24 -23 -23 -24 -24 -24 -24 -24 -24 -24 -24 -24 -24 -24 -23 -22 -21 -21 -20 -20 -20 -20 -20 -20 -19 -19 -19 -19 -19 -20 -19 -19 -19 -19 -18
-25 -25 -25 -25 -25 -25 -25 -24 -24 -24 -24 -24 -24 -24 -24 -24 -24 -25 -25 -24 -24 -24 -24 -23 -22 -22 -21 -21 -20 -20 -20 -20 -20 -20 -20 -19 -19 -19 -19 -19 -19 -19 -19 -18
-26 -26 -26 -26 -26 -25 -25 -25 -24 -24 -24 -24 -24 -24 -24 -25 -25 -25 -25 -25 -24 -24 -24 -24 -23 -22 -22 -21 -21 -20 -20 -20 -20 -20 -20 -20 -19 -19 -19 -18 -19 -19 -19 -19
-25 -27 -27 -26 -26 -26 -26 -25 -24 -24 -24 -24 -25 -25 -24 -25 -25 -26 -25 -25 -24 -23 -24 -24 -23 -22 -22 -22 -21 -20 -20 -20 -20 -20 -20 -20 -20 -19 -19 -19 -19 -19 -19 -19
Height
5762 5764 5765 5766 5767 5768 5769 5770 5770 5770 5769 5770 5768 5766 5765 5764 5762 5760 5757 5755 5753 5751 5748 5744 5741 5737 5732 5729 5724 5719 5713 5708 5705 5703 5700 5700 5700 5699 5698 5697 5697 5696 5695 5695
5757 5759 5761 5763 5764 5765 5766 5767 5768 5767 5766 5765 5764 5762 5761 5759 5758 5756 5753 5750 5748 5745 5742 5739 5734 5730 5725 5722 5717 5712 5705 5699 5697 5698 5698 5695 5695 5697 5696 5695 5696 5695 5693 5694
5753 5755 5757 5759 5761 5762 5764 5764 5764 5763 5762 5761 5760 5758 5757 5756 5754 5751 5748 5745 5742 5739 5736 5732 5728 5723 5718 5714 5710 5705 5699 5693 5689 5691 5690 5691 5693 5694 5694 5694 5694 5694 5693 5693
5748 5750 5753 5756 5757 5759 5760 5760 5760 5759 5759 5757 5756 5754 5753 5751 5748 5746 5742 5740 5737 5734 5730 5726 5721 5716 5712 5706 5703 5698 5692 5687 5684 5684 5686 5689 5691 5692 5692 5692 5692 5693 5693 5691
5743 5746 5749 5751 5753 5754 5756 5756 5756 5754 5754 5753 5751 5749 5747 5745 5743 5741 5738 5734 5731 5728 5724 5720 5715 5709 5705 5701 5695 5690 5685 5682 5680 5680 5684 5688 5689 5690 5691 5691 5692 5692 5692 5692
5738 5741 5744 5747 5748 5750 5750 5751 5750 5750 5749 5748 5746 5744 5742 5740 5738 5736 5732 5729 5724 5720 5716 5712 5707 5702 5698 5695 5690 5684 5680 5678 5678 5681 5684 5687 5689 5689 5689 5691 5691 5692 5691 5692
5733 5737 5739 5742 5744 5745 5745 5745 5745 5745 5745 5743 5741 5739 5738 5736 5733 5731 5728 5723 5718 5714 5709 5704 5701 5695 5691 5687 5683 5680 5677 5676 5678 5682 5684 5686 5687 5688 5690 5691 5691 5691 5691 5692
5728 5731 5734 5737 5739 5740 5740 5740 5740 5740 5739 5738 5736 5734 5732 5731 5728 5725 5721 5716 5711 5707 5704 5700 5693 5688 5683 5681 5679 5677 5676 5677 5679 5681 5681 5685 5688 5690 5691 5692 5692 5691 5692 5693
5722 5725 5728 5731 5733 5734 5734 5734 5735 5734 5734 5733 5731 5729 5727 5725 5721 5718 5714 5709 5704 5699 5696 5692 5687 5682 5678 5675 5674 5674 5675 5676 5680 5681 5680 5681 5685 5689 5690 5691 5691 5692 5693 5696
5716 5719 5722 5725 5726 5727 5729 5729 5729 5729 5728 5726 5725 5723 5721 5718 5714 5710 5706 5700 5696 5692 5687 5683 5679 5674 5670 5667 5668 5670 5673 5675 5678 5679 5678 5680 5684 5689 5691 5692 5696 5693 5695 5698
5709 5712 5715 5718 5720 5721 5723 5723 5723 5723 5722 5720 5719 5716 5714 5711 5707 5703 5698 5694 5689 5685 5681 5676 5670 5665 5662 5661 5663 5666 5669 5673 5675 5678 5680 5683 5685 5689 5691 5692 5694 5695 5697 5700
5702 5706 5709 5711 5714 5715 5716 5717 5717 5716 5715 5714 5712 5710 5708 5704 5700 5695 5690 5685 5680 5675 5671 5666 5661 5657 5654 5655 5658 5662 5667 5671 5674 5678 5680 5681 5686 5689 5691 5693 5695 5697 5700 5702
5695 5699 5702 5705 5707 5708 5710 5711 5710 5709 5708 5707 5706 5704 5701 5696 5692 5688 5683 5678 5673 5668 5662 5657 5652 5649 5648 5649 5654 5659 5664 5669 5672 5675 5679 5682 5687 5688 5691 5693 5695 5698 5701 5704
5689 5692 5695 5698 5700 5702 5703 5704 5704 5703 5701 5700 5699 5696 5693 5690 5685 5681 5676 5671 5665 5659 5652 5647 5644 5641 5642 5646 5651 5658 5663 5667 5671 5675 5677 5682 5686 5688 5692 5695 5697 5699 5703 5707
5682 5686 5688 5691 5693 5694 5695 5695 5696 5696 5696 5695 5693 5690 5687 5683 5679 5675 5670 5664 5657 5649 5643 5640 5636 5634 5637 5643 5650 5656 5661 5665 5671 5675 5678 5683 5686 5689 5692 5695 5698 5701 5704 5709
5675 5679 5681 5684 5686 5687 5688 5689 5689 5689 5688 5688 5686 5683 5680 5676 5672 5668 5663 5656 5648 5642 5636 5631 5628 5627 5632 5640 5648 5654 5658 5663 5669 5674 5678 5683 5686 5689 5693 5696 5699 5702 5706 5711
5667 5671 5674 5677 5679 5679 5681 5682 5682 5682 5682 5681 5679 5677 5674 5670 5667 5663 5656 5647 5641 5636 5630 5625 5623 5624 5629 5639 5646 5653 5658 5663 5668 5672 5677 5683 5686 5691 5694 5696 5700 5704 5708 5712
5659 5663 5667 5669 5671 5672 5673 5674 5674 5675 5676 5675 5674 5671 5669 5665 5662 5658 5651 5643 5637 5631 5626 5624 5622 5624 5632 5641 5646 5651 5656 5662 5668 5672 5677 5682 5687 5691 5694 5697 5701 5705 5709 5713
5651 5656 5660 5662 5664 5665 5666 5666 5668 5668 5670 5667 5667 5666 5664 5661 5657 5652 5646 5639 5636 5631 5627 5626 5628 5632 5639 5642 5645 5651 5657 5662 5667 5672 5678 5683 5687 5690 5695 5698 5702 5706 5710 5714
5644 5649 5653 5655 5656 5657 5659 5660 5662 5663 5662 5661 5661 5660 5658 5657 5652 5648 5643 5639 5636 5633 5632 5631 5634 5636 5639 5642 5647 5653 5658 5663 5668 5672 5678 5683 5686 5689 5695 5699 5703 5707 5711 5715
5637 5641 5644 5646 5648 5650 5651 5653 5656 5657 5657 5657 5656 5655 5654 5652 5649 5645 5641 5639 5637 5637 5636 5635 5637 5638 5640 5643 5648 5653 5659 5664 5669 5673 5677 5681 5684 5690 5695 5699 5703 5707 5711 5715
5628 5632 5635 5638 5641 5643 5646 5647 5650 5651 5653 5652 5651 5651 5650 5649 5646 5642 5640 5639 5639 5639 5638 5637 5638 5639 5641 5645 5649 5654 5659 5665 5668 5672 5675 5679 5684 5689 5694 5698 5702 5706 5710 5714
5620 5624 5627 5631 5633 5636 5639 5642 5644 5645 5646 5646 5647 5646 5646 5645 5641 5639 5638 5638 5639 5639 5638 5638 5638 5639 5642 5646 5650 5656 5660 5664 5668 5673 5677 5678 5681 5686 5692 5696 5700 5704 5709 5712
5613 5617 5621 5623 5626 5629 5633 5635 5638 5640 5641 5642 5643 5642 5642 5640 5637 5636 5635 5636 5637 5638 5638 5638 5638 5640 5644 5648 5652 5655 5659 5664 5668 5672 5675 5680 5683 5687 5691 5695 5698 5702 5706 5710
5606 5610 5613 5617 5620 5623 5627 5630 5632 5635 5636 5637 5638 5638 5638 5636 5634 5633 5633 5633 5633 5636 5638 5638 5638 5640 5642 5647 5650 5653 5657 5663 5667 5671 5674 5678 5682 5686 5690 5693 5697 5701 5704 5708
5599 5603 5607 5609 5614 5619 5622 5625 5627 5629 5630 5631 5633 5634 5634 5633 5631 5630 5629 5630 5631 5635 5635 5636 5637 5640 5642 5645 5649 5652 5656 5660 5665 5669 5672 5676 5679 5683 5687 5690 5694 5698 5701 5704
5594 5599 5601 5606 5611 5614 5617 5620 5622 5624 5625 5626 5628 5630 5630 5629 5627 5626 5626 5626 5626 5629 5632 5633 5635 5638 5640 5642 5646 5650 5654 5657 5661 5666 5670 5673 5677 5680 5684 5687 5689 5693 5696 5699
Wind_Speed
21 19 17 16 14 12 10 10 12 13 15 17 19 21 22 22 22 22 24 25 26 27 29 30 30 32 34 35 38 41 45 49 35 18 15 13 11 10 10 11 9 5 3 7
21 18 18 17 15 13 13 13 15 17 18 19 18 17 18 20 20 21 22 24 26 28 29 30 32 35 37 38 40 44 47 45 30 12 9 16 11 9 9 12 7 4 3 3
21 19 19 18 16 16 16 15 18 17 18 18 18 19 20 22 23 25 26 29 29 31 31 32 35 37 39 40 41 44 45 35 22 16 17 8 6 10 10 12 8 5 3 3
22 20 20 19 18 18 18 17 18 18 18 18 20 23 26 27 28 30 32 31 32 33 33 34 36 37 39 41 43 45 35 24 18 11 15 11 10 11 12 11 10 9 4 9
22 21 20 20 19 19 19 19 19 19 20 22 25 27 27 29 31 32 32 35 35 35 35 37 37 37 39 40 45 42 26 19 10 10 12 10 10 8 9 5 8 10 5 5
24 23 21 20 20 20 20 19 19 20 23 25 27 29 29 30 31 31 33 35 35 38 37 38 37 38 39 43 41 30 24 11 8 11 10 6 4 6 7 7 7 4 3 13
25 23 22 22 22 21 20 20 20 23 27 26 27 27 28 30 32 32 34 35 36 37 37 37 37 36 40 43 31 21 12 7 14 11 11 8 2 8 6 8 3 3 4 17
26 25 24 23 22 20 21 22 24 28 27 27 26 27 29 30 32 33 34 36 39 38 37 34 37 39 41 32 23 16 7 13 14 13 11 13 5 8 8 6 5 5 13 15
28 27 25 23 22 21 22 24 28 27 28 28 28 28 30 31 33 34 37 38 40 39 36 35 38 40 34 27 17 8 11 18 15 14 17 9 13 10 10 6 2 6 12 9
29 27 25 23 22 23 25 27 28 28 28 28 30 31 31 32 35 37 40 41 41 39 37 39 40 37 29 22 12 12 14 19 18 18 16 16 14 10 8 8 7 14 11 10
29 27 26 25 25 25 28 29 29 29 29 30 30 31 31 35 37 40 40 41 39 39 38 41 41 34 27 18 12 15 16 23 23 17 15 10 12 12 11 10 12 7 10 14
29 28 28 28 27 27 27 29 29 30 30 30 29 31 32 37 39 40 40 40 39 41 43 44 40 33 21 14 19 15 19 25 20 18 18 9 14 11 11 11 11 11 14 16
30 29 28 28 29 28 28 30 30 31 30 28 29 30 34 38 39 38 38 38 41 44 45 42 36 26 15 16 23 19 24 24 21 21 21 14 14 12 11 12 12 14 17 18
31 30 30 30 30 29 29 30 31 30 28 28 28 31 38 37 36 36 37 40 44 45 43 38 30 20 14 21 26 24 24 23 23 25 24 16 16 12 14 13 14 17 20 20
33 31 31 29 30 30 29 32 30 29 28 29 31 34 35 32 34 35 38 42 44 43 37 31 25 18 16 26 28 24 23 21 23 28 22 17 15 10 15 13 15 19 22 22
34 32 31 30 30 29 30 30 29 30 27 29 32 32 31 31 33 35 39 42 42 34 29 27 21 15 20 31 31 22 20 22 26 26 23 19 14 15 15 14 17 21 23 23
34 33 31 29 29 29 30 30 30 29 29 30 29 27 27 29 32 35 39 40 32 28 23 19 13 10 21 33 31 23 27 25 27 25 23 19 16 17 14 17 19 22 23 24
34 30 30 28 31 31 30 30 30 31 30 29 25 25 25 27 30 33 35 32 27 22 12 6 4 16 30 30 24 23 28 25 24 26 23 19 17 18 15 18 20 22 23 24
31 29 29 30 31 32 30 30 30 30 29 26 22 24 24 25 28 32 32 26 19 8 4 6 17 24 24 18 27 27 25 24 25 26 23 20 18 17 17 20 20 21 23 25
30 28 30 32 33 32 31 31 29 27 23 21 21 21 23 23 26 28 24 19 9 1 7 22 24 11 13 18 28 30 25 24 24 22 21 20 19 19 19 20 21 20 23 25
32 33 32 33 33 31 29 25 25 23 20 20 19 20 21 22 23 22 17 10 2 11 9 13 13 14 11 20 30 27 26 23 20 19 21 23 23 24 21 22 22 22 22 23
36 36 35 33 30 28 25 23 21 20 19 19 18 19 19 18 19 16 10 5 7 9 12 11 13 14 14 21 27 25 25 23 15 21 23 30 25 25 25 23 22 23 23 23
36 34 32 28 25 23 23 21 20 21 19 19 18 18 15 15 16 11 8 8 18 6 10 13 19 13 16 13 29 28 22 21 17 24 23 17 26 34 27 24 23 23 23 23
33 30 26 25 24 23 23 22 21 18 17 19 18 14 12 13 11 8 7 11 22 11 9 14 21 16 16 15 26 25 27 24 20 17 19 23 23 25 27 25 26 24 22 21
29 26 26 24 24 24 23 22 19 17 20 21 16 12 12 11 9 9 9 14 24 18 13 14 19 19 13 21 21 31 28 26 24 23 20 21 19 17 21 25 25 22 22 22
28 27 25 26 25 24 22 20 19 22 22 20 15 11 10 10 10 10 13 15 27 24 17 17 16 22 20 24 18 26 29 28 24 24 25 24 23 22 21 17 17 21 20 24
28 26 27 24 23 22 21 20 21 22 22 20 16 11 8 9 8 9 15 15 27 32 21 20 21 21 18 19 25 24 28 28 27 25 26 27 27 28 27 22 23 20 16 22
Wind_Direction
249 253 258 258 261 267 274 289 294 299 302 304 304 306 308 309 310 311 312 313 312 309 309 309 310 312 312 314 318 327 330 329 326 302 294 271 270 269 271 259 271 28 351 333
245 249 254 255 259 266 275 286 296 301 304 306 308 315 316 317 316 315 314 312 311 311 313 314 315 315 313 315 320 329 329 324 316 287 262 236 250 252 261 246 263 305 278 278
243 247 251 254 260 269 279 292 300 305 307 310 314 319 321 319 319 320 321 320 320 320 317 314 315 315 315 318 323 329 325 317 293 262 248 264 223 250 238 255 257 169 202 276
241 246 249 255 261 273 285 295 297 303 306 313 316 319 320 319 321 322 319 317 318 320 315 313 313 312 316 321 326 326 320 311 300 256 223 230 236 240 250 257 264 194 197 190
242 246 251 257 265 275 285 290 294 302 308 311 316 317 320 320 319 318 320 321 317 316 314 311 314 315 320 324 325 321 313 307 285 214 200 221 232 260 263 200 208 221 218 207
244 246 252 260 268 274 278 287 294 301 309 313 314 314 315 319 320 317 316 318 314 312 314 314 317 319 322 326 324 318 313 294 207 188 186 185 226 231 192 200 230 226 94 161
247 253 257 263 269 275 282 288 294 302 308 309 311 314 313 313 315 314 313 312 311 312 315 319 321 322 324 323 319 317 305 199 184 184 164 136 134 193 176 181 175 161 168 159
247 251 257 264 268 274 281 290 296 301 305 305 307 310 311 309 312 313 313 311 312 314 320 322 322 323 321 318 316 305 235 183 181 185 186 111 177 181 188 167 179 177 160 140
247 253 257 263 268 272 281 291 296 297 301 303 304 305 307 309 311 312 310 310 312 318 320 320 319 318 314 311 302 261 202 186 177 185 167 109 183 188 171 155 192 151 134 132
247 250 256 260 266 272 281 288 292 296 300 302 302 301 305 310 311 309 309 313 319 321 321 320 317 315 310 303 274 208 199 189 177 189 193 84 164 180 186 155 138 123 127 130
246 251 256 257 267 273 283 286 290 293 297 301 301 301 303 308 308 310 310 315 319 319 318 314 315 312 307 282 227 203 204 189 185 177 163 101 183 182 179 165 134 148 141 143
248 251 254 257 265 274 281 285 291 295 296 297 299 301 302 304 309 313 317 320 319 317 316 314 315 310 298 256 203 200 194 188 186 179 169 165 184 186 186 153 159 155 154 150
246 252 254 258 266 274 280 288 291 295 294 294 299 300 301 306 311 316 320 319 317 314 314 314 309 304 282 220 196 195 185 184 187 184 181 185 180 183 172 161 157 154 157 153
248 251 254 261 268 274 281 286 288 291 291 292 296 298 303 310 315 317 319 317 316 315 314 310 305 291 249 201 191 190 188 189 183 189 193 173 178 188 167 163 161 156 159 152
248 251 256 263 271 276 281 286 286 286 288 289 296 299 306 312 315 316 318 315 316 314 313 310 298 280 221 192 187 192 194 194 179 188 192 173 174 183 159 165 159 163 160 157
249 253 258 265 271 275 279 282 280 282 284 292 296 299 307 313 314 317 315 317 317 317 313 306 296 258 202 185 186 190 199 183 177 188 189 179 186 159 160 159 160 164 162 161
248 255 260 265 272 273 275 277 278 279 285 291 298 305 310 312 311 315 318 318 321 319 311 304 287 221 180 176 185 188 176 172 180 184 185 182 179 168 167 159 163 163 164 163
251 253 261 264 271 272 273 273 273 276 286 290 301 301 308 305 311 317 319 318 324 317 327 317 170 155 164 170 182 183 177 178 180 189 185 177 177 178 178 167 167 167 166 167
247 254 260 266 266 269 270 267 276 282 285 291 298 302 300 304 313 319 319 323 326 324 1 115 123 136 157 174 184 178 178 177 182 194 193 183 182 183 180 170 170 172 172 170
251 253 259 262 259 263 266 271 277 280 286 293 297 295 296 309 314 317 318 325 321 3 109 121 119 101 165 180 180 178 174 179 186 198 195 186 196 175 177 170 173 175 177 176
250 251 252 255 260 263 266 267 270 276 281 285 284 284 293 306 312 313 316 318 306 126 100 106 135 106 138 179 182 176 180 180 187 198 197 204 207 163 174 172 175 175 177 182
244 249 250 256 259 257 259 261 264 272 276 276 271 277 292 307 309 307 309 267 173 125 122 126 150 131 119 181 178 175 178 180 173 201 214 217 199 167 178 179 180 182 182 185
242 244 250 251 249 249 250 252 254 258 265 261 262 273 295 301 304 295 288 231 182 147 136 146 151 146 142 165 183 181 191 194 176 174 180 199 187 179 181 178 179 182 186 192
245 242 239 240 241 240 243 245 248 251 248 249 254 272 295 296 301 270 261 225 202 196 160 152 159 155 165 180 192 198 187 199 201 175 168 168 180 186 190 185 187 185 188 191
227 226 230 231 232 234 238 244 245 237 233 245 253 270 288 298 302 255 251 222 216 199 164 178 172 180 165 187 198 197 192 191 197 197 187 180 180 186 186 191 198 195 196 200
218 221 222 222 224 230 237 239 236 226 233 244 253 267 295 307 304 249 241 234 219 205 162 183 185 186 184 175 190 190 194 195 193 201 201 199 196 190 199 228 208 195 205 208
218 212 216 222 226 227 226 227 221 228 238 246 252 265 302 312 309 269 247 249 225 209 185 175 187 181 177 175 178 203 207 208 209 210 207 205 206 208 203 219 227 215 216 210